{"data":{"norad_id":53268,"epoch":"2026-05-25T03:52:51.743136Z","epoch_age_seconds":71726,"freshness":"FRESH","line1":"1 53268U 22086AC  26145.16170999  .00000648  00000+0  58786-4 0  9997","line2":"2 53268  53.2126 210.8263 0000827  74.2377 285.8706 15.08833771212615","mean_motion":15.08833771,"eccentricity":8.27e-5,"inclination_deg":53.2126,"raan_deg":210.8263,"arg_perigee_deg":74.2377,"mean_anomaly_deg":285.8706,"bstar":5.8786e-5,"rev_number":21261,"period_min":95.43794867778,"perigee_km":539.19031830791,"apogee_km":540.3345388734,"semimajor_km":6917.8994285907,"source":"CELESTRAK","updated_at":"2026-05-25T13:38:17.365767Z"}}